Weather in Linda

Russia / Nizhny Novgorod Oblast'     56°36′56″N   44°05′48″E
temp.,
°C
wind,
m/s
gust,
m/s
humid.,
%
clouds,
%
prec.,
mm/h
press.,
hPa
HPBL,
m
24 may, tue
tue2400:00+2w3796100 0.1 1001398
03:00+1w4898100 0.6 1001339
06:00+1nnw3698100 0.6 1002348
09:00+3nw3475100 0.9 10031096
12:00+5nw4468100 0.4 10051172
15:00+6nw445798 0.8 10061336
18:00+6nw4461100 0.2 10071165
21:00+2nnw348199 0.2 100971
25 may, wed
wed2500:000nnw339315 0.0 100956
03:00−1nw34955 0.0 101060
06:00+3nw368750 0.0 1011306
09:00+7wnw556887 0.1 10111178
12:00+9wnw565589 0.1 10111741
15:00+9wnw786892 0.6 10121405
18:00+8wnw577372 0.3 10121055
21:00+4w489217 0.4 1012138
26 may, thu
thu2600:00+4w378977 0.1 1013186
03:00+2wsw379373 0.1 1012135
06:00+4wsw488185 0.0 1012304
09:00+9wsw466687 0.0 10101101
12:00+9wsw5669100 0.3 10101277
15:00+12wsw366199 0.6 10081429
18:00+12s2372100 0.1 1006172
21:00+9sw3598100 2.4 1005130
27 may, fri
fri2700:00+9sse3599100 3.7 1002162
03:00+10s4999100 7.8 999410
06:00+10ssw4897100 3.4 997366
09:00+13wsw5882100 5.3 997906
12:00+14wsw7108291 1.3 9981198
15:00+14wsw7107768 1.9 9991248
18:00+13w7118315 1.1 10011195
21:00+8wnw23905 1.3 100451
28 may, sat
sat2800:00+7sw3496100 0.0 100576
03:00+7s359557 0.0 100481
06:00+9s51390100 0.1 1003399
09:00+10sse81794100 3.8 999962
12:00+13sw91691100 2.4 9991302
15:00+15wsw814745 3.2 10011600
18:00+15w5106433 0.3 1003714
21:00+10sw368190 0.4 100691